This demonstration page uses our WeatherBlox Daily Observations layout. Learn more.

Left ArrowRight Arrow

38.88101, -77.10428

Hourly Observations for December 26, 2015

Temp ( °F °C ) Dew Point ( °F °C ) Humidity (%) Winds ( mph kmh ) Pressure ( in mb ) Visibility ( mi km ) Precip ( " mm )
12:36 am 00:36 Cloudy with Fog 57 14 57 14 100 100 NNE 3 6 30.24 1024 6 10 N/A
12:52 am 00:52 Cloudy with Fog 58 14.4 58 14.4 100 100 NNW 5 7 30.24 1024 6 10 N/A
1:42 am 01:42 Cloudy with Fog 59 15 57 14 94 94 N 5 7 30.24 1024 6 10 N/A
1:52 am 01:52 Cloudy with Fog 58 14.4 57 13.9 97 97 N 6 9 30.23 1024 6 10 N/A
2:12 am 02:12 Mostly Cloudy 57 14 57 14 100 100 N 9 15 30.27 1025 8 13 N/A
2:52 am 02:52 Mostly Cloudy 59 15 58 14.4 96 96 N 6 9 30.26 1025 10 16 N/A
3:52 am 03:52 Cloudy 58 14.4 57 13.9 97 97 ENE 5 7 30.27 1025 9 14 N/A
4:43 am 04:43 Cloudy 60 15.6 58 14.4 93 93 N 8 13 30.30 1026 10 16 N/A
4:52 am 04:52 Cloudy 59 15 57 13.9 93 93 NNE 9 15 30.30 1026 10 16 N/A
5:11 am 05:11 Cloudy 60 15.6 58 14.4 93 93 NNE 10 17 30.30 1026 10 16 N/A
5:29 am 05:29 Cloudy 60 15.6 58 14.4 93 93 NNE 14 22 30.33 1027 10 16 N/A
5:39 am 05:39 Cloudy 60 15.6 58 14.4 93 93 NE 13 20 30.33 1027 8 13 N/A
5:52 am 05:52 Cloudy 59 15 58 14.4 96 96 NE 8 13 30.32 1027 7 11 N/A
6:18 am 06:18 Cloudy with Mist and Fog 59 15 57 14 94 94 NE 9 15 30.33 1027 4 6 N/A
6:52 am 06:52 Cloudy with Drizzle 60 15.6 58 14.4 93 93 NE 13 20 30.34 1028 4 6 N/A
7:11 am 07:11 Cloudy with Mist and Fog 59 15 57 13.9 93 93 NE 15 24 30.36 1028 6 10 N/A
7:18 am 07:18 Cloudy 59 15 55 13 88 88 ENE 21 33 30.36 1028 10 16 N/A
7:28 am 07:28 Cloudy 59 15 55 13 88 88 NE 15 24 30.36 1028 10 16 N/A
7:52 am 07:52 Cloudy 58 14.4 54 12.2 87 87 NE 15 24 30.36 1028 10 16 N/A
8:11 am 08:11 Cloudy 58 14.4 53 11.7 84 84 NE 16 26 30.39 1029 10 16 N/A
8:52 am 08:52 Cloudy with Drizzle 55 12.8 52 11.1 90 90 NE 20 31 30.41 1030 6 10 N/A
9:16 am 09:16 Cloudy 55 13 52 11 88 88 ENE 16 26 30.42 1030 10 16 N/A
9:38 am 09:38 Cloudy 55 13 52 11 88 88 NE 9 15 30.42 1030 10 16 N/A
9:52 am 09:52 Cloudy 56 13.3 51 10.6 84 84 ENE 9 15 30.43 1031 10 16 N/A
10:30 am 10:30 Cloudy 57 14 46 8 67 67 ENE 12 19 30.42 1030 10 16 N/A
10:52 am 10:52 Cloudy 57 13.9 45 7.2 64 64 ENE 12 19 30.42 1030 10 16 N/A
11:16 am 11:16 Cloudy 57 14 45 7 63 63 ENE 13 20 30.42 1030 10 16 N/A
11:52 am 11:52 Cloudy 57 13.9 46 7.8 67 67 ENE 13 20 30.40 1029 10 16 N/A
12:52 pm 12:52 Cloudy 56 13.3 46 7.8 70 70 E 9 15 30.37 1029 10 16 N/A
1:52 pm 13:52 Cloudy 56 13.3 47 8.3 72 72 E 9 15 30.37 1028 10 16 N/A
2:52 pm 14:52 Cloudy 55 12.8 48 8.9 77 77 E 9 15 30.36 1028 10 16 N/A
3:52 pm 15:52 Cloudy 55 12.8 49 9.4 80 80 E 9 15 30.36 1028 10 16 N/A
4:52 pm 16:52 Cloudy 54 12.2 49 9.4 83 83 ENE 15 24 30.36 1028 10 16 N/A
5:50 pm 17:50 Cloudy with Drizzle 54 12 50 10 88 88 ENE 7 11 30.36 1028 6 10 N/A
5:52 pm 17:52 Cloudy with Drizzle 53 11.7 50 10 89 89 ENE 8 13 30.36 1028 5 8 N/A
6:08 pm 18:08 Cloudy with Drizzle 54 12 52 11 94 94 ENE 8 13 30.36 1028 4 6 N/A
6:10 pm 18:10 Cloudy with Drizzle 54 12 52 11 94 94 ENE 8 13 30.36 1028 4 6 N/A
6:25 pm 18:25 Cloudy with Drizzle 53 11.7 51 10.6 93 93 ENE 5 7 30.36 1028 5 8 N/A
6:52 pm 18:52 Cloudy with Drizzle 52 11.1 51 10.6 97 97 NE 6 9 30.37 1029 5 8 N/A
7:28 pm 19:28 Cloudy 52 11 52 11 100 100 ENE 8 13 30.36 1028 9 14 N/A
7:52 pm 19:52 Cloudy with Light Rain 52 11.1 51 10.6 97 97 NE 8 13 30.36 1028 9 14 N/A
8:52 pm 20:52 Cloudy 52 11.1 51 10.6 97 97 ENE 5 7 30.34 1027 10 16 N/A
9:31 pm 21:31 Cloudy with Light Rain 52 11.1 51 10.6 97 97 NNE 5 7 30.33 1027 7 11 N/A
9:52 pm 21:52 Cloudy with Drizzle 52 11.1 51 10.6 97 97 NE 3 6 30.33 1027 3 5 N/A
9:54 pm 21:54 Cloudy with Drizzle 52 11 52 11 100 100 NE 5 7 30.33 1027 3 4 N/A
10:08 pm 22:08 Cloudy with Drizzle 52 11 52 11 100 100 NE 5 7 30.33 1027 2 3 N/A
10:13 pm 22:13 Cloudy with Drizzle 52 11.1 51 10.6 97 97 NE 5 7 30.30 1026 2 3 0.01 0.25
10:28 pm 22:28 Cloudy with Drizzle 52 11 52 11 100 100 NE 5 7 30.30 1026 3 5 N/A
10:52 pm 22:52 Cloudy with Drizzle 52 11.1 51 10.6 97 97 NNE 5 7 30.30 1026 4 6 0.01 0.25
11:52 pm 23:52 Cloudy with Drizzle 51 10.6 51 10.6 100 100 N N/A 30.27 1025 4 6 N/A

Powered by AerisWeather